Wetbulb
56.26 56.18 56.28 56.41 56.52 56.53 56.68 56.78 56.84 57.07 57.09 57.33 57.53 57.71 57.94 57.90 57.32 53.84 48.48 54.45 56.74 64.34 63.99 51.02 52.87 50.40 49.85 48.29 49.99 49.38 41.90 39.40 41.88 43.74 46.03 58.82 58.36 62.01 65.50 63.16 64.56 66.44 65.51 65.73 67.04
55.91 56.11 56.15 56.31 56.17 56.32 56.47 56.57 56.77 56.81 57.02 57.18 57.43 57.42 57.53 57.63 52.66 50.16 58.32 65.14 65.64 67.16 51.64 48.26 47.58 48.24 46.37 46.12 47.36 45.20 40.24 41.85 48.15 48.09 48.28 54.02 59.35 60.52 61.04 62.18 61.53 64.05 66.37 67.10 66.46
55.58 55.77 55.87 56.01 55.97 55.90 56.16 56.44 56.46 56.73 56.96 57.08 57.08 56.88 57.20 56.67 50.83 55.33 67.29 66.66 67.45 65.03 50.52 48.91 48.61 46.51 43.15 45.14 44.78 43.19 42.31 46.33 48.93 49.89 49.85 50.57 59.34 62.82 61.07 58.33 61.94 62.24 64.15 66.14 63.96
55.23 55.53 55.70 55.66 55.72 55.81 56.03 56.11 56.38 56.75 56.89 56.84 56.47 56.51 57.00 53.30 44.20 56.28 68.32 67.21 66.28 56.47 51.59 49.00 47.30 42.78 43.25 42.39 43.23 43.90 45.66 46.15 47.76 49.76 48.15 49.28 59.54 61.16 61.64 61.06 64.68 65.49 65.98 65.54 62.87
54.98 55.17 55.17 55.23 55.53 55.60 55.82 56.07 56.13 56.24 56.55 56.48 56.49 56.57 53.25 47.75 50.91 60.65 68.46 66.12 59.27 53.32 49.82 47.45 43.76 42.73 42.18 41.51 42.01 40.97 44.25 45.39 47.10 46.39 46.90 49.85 51.62 60.30 60.60 63.51 64.12 64.42 64.21 63.06 61.83
55.25 55.10 54.98 55.08 55.28 55.52 55.61 55.66 55.66 55.82 56.09 56.36 56.25 56.39 49.91 42.45 56.09 63.37 63.15 61.21 57.27 49.30 47.55 47.00 46.49 45.27 43.42 42.58 41.39 44.44 44.44 45.31 45.50 45.44 45.03 46.58 53.73 58.21 60.92 63.66 61.87 61.55 60.90 61.13 61.14
55.00 55.18 54.76 54.82 54.96 55.19 55.42 55.47 55.51 55.61 56.48 57.57 57.06 56.11 51.55 46.94 58.40 61.47 61.09 57.68 56.34 51.81 50.81 51.79 51.50 47.51 44.97 44.61 44.53 45.28 42.90 44.93 44.54 43.88 45.78 48.18 46.37 52.91 61.77 61.53 59.80 60.05 61.58 62.97 63.55
54.98 54.91 54.59 54.45 54.61 54.96 55.24 55.35 55.37 55.72 58.40 57.64 58.36 54.38 46.63 58.59 57.38 57.65 59.34 56.29 56.12 54.46 53.23 53.73 49.84 47.45 44.26 45.93 45.53 42.76 42.08 38.42 43.36 44.79 47.07 46.73 41.86 54.31 60.11 59.38 58.61 61.05 62.53 63.26 63.21
54.65 54.52 54.65 54.24 54.36 54.87 54.92 54.98 55.27 56.34 58.57 58.54 53.75 52.61 50.00 61.48 52.83 57.54 58.40 56.58 56.25 54.91 53.80 55.29 47.98 45.24 46.35 40.47 38.46 39.64 37.24 38.68 42.21 43.52 44.30 44.24 42.90 56.20 58.49 58.46 58.35 59.95 61.13 62.16 62.03
54.42 54.17 54.09 54.32 54.19 54.50 54.29 54.39 55.95 55.64 57.55 57.68 58.14 51.14 54.46 54.95 51.22 55.31 54.97 57.09 55.01 53.52 50.76 47.16 43.38 41.05 39.58 37.96 33.67 37.37 37.36 39.55 40.68 44.60 43.34 42.62 43.90 54.80 57.83 58.99 58.88 59.25 58.81 60.06 61.32
54.26 53.85 53.54 53.76 54.17 53.97 51.10 50.73 48.56 50.59 54.24 53.44 54.91 54.81 56.00 56.16 55.01 53.28 55.02 54.63 53.28 49.73 42.41 43.92 40.32 37.92 41.09 41.82 42.47 42.23 41.08 40.88 43.56 46.65 44.34 43.16 43.33 51.68 57.34 59.36 57.96 57.15 57.22 59.34 60.05
53.64 53.66 53.70 53.56 53.86 53.52 48.11 50.40 50.28 49.99 45.49 54.65 57.03 57.30 58.89 54.15 50.44 52.34 55.33 50.26 49.97 45.44 46.09 43.07 39.35 44.63 45.32 45.11 44.32 43.56 41.52 40.94 43.50 46.39 44.30 43.96 43.99 47.22 56.23 59.06 58.60 57.60 57.34 58.62 61.27
52.89 53.02 53.31 53.51 52.98 49.61 50.35 54.50 54.22 52.11 44.95 51.58 54.71 56.25 55.41 52.57 50.50 50.82 53.01 50.45 48.38 46.06 45.78 42.87 47.06 49.20 46.89 45.51 45.03 41.78 39.89 40.91 41.39 45.17 44.41 43.75 42.30 44.36 48.44 55.89 59.39 59.64 58.78 59.09 60.86
52.44 52.60 52.83 52.27 51.97 50.70 52.50 55.34 52.24 52.78 40.75 47.79 51.28 52.00 51.95 51.08 49.73 54.30 54.47 52.16 48.76 45.94 46.85 45.11 48.65 48.12 45.30 46.21 44.89 39.46 45.11 46.63 46.13 42.81 37.95 43.68 35.10 40.82 44.83 47.20 56.03 58.82 58.58 58.57 60.89
52.06 52.40 52.48 52.41 47.42 49.56 54.44 54.47 53.42 52.29 36.14 52.28 49.57 53.93 51.80 48.54 49.84 51.93 55.11 51.50 47.81 47.58 46.54 45.17 47.58 45.98 44.96 46.81 48.38 44.25 48.59 46.37 45.88 41.24 38.41 40.76 37.34 44.07 51.63 50.39 53.21 54.35 57.50 60.38 61.56
51.84 52.02 51.69 52.03 49.02 52.57 54.99 53.39 51.56 41.26 35.67 47.14 50.18 48.41 46.87 48.08 49.28 50.91 51.41 52.08 51.61 48.59 47.96 47.20 51.06 49.06 48.60 49.93 49.43 49.84 46.14 43.65 40.94 38.84 34.56 38.38 38.63 42.54 47.27 49.91 54.07 58.30 59.84 61.06 61.90
51.42 51.33 49.22 51.82 49.80 53.94 53.36 50.95 40.23 35.88 48.91 44.96 46.08 48.36 46.65 46.37 47.64 49.76 48.51 46.01 43.09 40.73 41.88 47.89 49.31 52.33 51.84 45.83 47.74 45.99 39.32 33.84 33.43 33.79 34.08 41.17 42.82 42.50 49.99 53.40 54.61 56.44 60.97 62.42 61.70
50.35 49.87 49.96 52.19 51.38 53.30 51.80 45.51 33.72 45.07 46.55 49.18 46.90 46.75 45.91 47.09 47.14 48.75 46.67 43.76 48.52 46.78 42.45 42.27 41.27 49.82 53.27 48.24 44.26 42.87 41.27 34.81 30.51 32.07 35.02 42.92 41.01 43.55 51.39 54.83 55.52 57.26 59.51 63.60 63.72
49.17 48.11 50.29 54.24 53.62 52.95 48.06 38.41 39.23 45.66 48.71 47.31 46.33 41.94 42.58 46.73 46.69 46.17 45.25 46.59 49.50 47.84 41.90 40.78 42.98 51.43 52.76 51.83 48.01 44.72 39.21 43.19 38.83 38.03 35.83 38.61 44.53 49.29 50.96 52.66 55.42 55.69 56.55 57.49 61.13
44.35 47.70 51.14 56.38 56.06 51.73 44.48 40.89 44.84 50.61 50.81 48.91 42.29 45.82 42.59 44.60 43.69 42.59 44.80 50.81 50.16 50.76 48.02 45.25 39.40 48.45 52.34 52.03 49.55 46.54 47.55 39.25 38.27 31.66 30.20 37.54 39.53 40.45 45.73 48.16 53.68 53.30 54.70 55.75 56.74
47.23 47.79 53.89 55.09 54.15 47.34 39.78 42.06 48.33 52.00 52.01 48.48 47.04 45.90 46.38 45.76 45.08 42.89 47.26 49.45 50.81 50.17 49.90 45.96 42.10 43.96 48.18 45.27 43.92 42.38 39.95 40.83 39.13 38.54 33.51 32.32 36.78 46.82 46.29 47.21 50.58 52.94 54.44 56.49 54.42
43.37 44.30 54.52 52.42 43.95 42.72 40.98 46.68 50.11 49.96 51.20 48.63 48.20 48.18 45.93 47.38 45.26 45.39 46.82 48.59 51.52 50.95 46.78 46.16 42.07 37.68 42.20 47.82 49.82 44.86 43.03 40.47 34.61 33.83 38.20 36.71 37.33 48.17 49.29 47.65 49.37 52.83 53.00 52.02 54.23
38.95 43.17 52.55 51.01 38.84 39.24 44.35 49.79 51.25 49.65 49.00 48.85 48.18 49.55 49.35 45.50 41.95 46.51 48.73 50.49 52.22 49.66 45.19 43.40 39.04 34.08 35.05 39.94 43.85 41.99 46.47 45.38 41.10 38.87 36.87 34.19 36.44 48.84 47.83 48.50 50.90 51.21 51.47 52.90 53.76
41.51 41.88 45.54 46.62 44.78 42.30 42.73 44.79 45.97 50.09 49.25 49.61 48.16 48.48 46.68 44.57 44.86 43.79 46.77 51.47 51.39 49.84 53.88 47.74 39.46 37.59 31.91 35.15 40.07 39.82 43.28 45.23 40.43 34.90 36.38 37.53 39.14 42.55 43.39 49.59 50.09 51.74 51.94 52.08 53.21
44.00 42.04 42.22 38.68 41.78 42.33 41.54 43.66 44.52 45.09 47.80 47.49 44.84 46.34 44.40 40.30 42.36 42.47 46.31 47.37 49.54 52.32 46.60 41.29 35.19 38.64 41.12 44.58 44.45 42.79 42.68 42.59 40.81 40.40 37.72 40.29 38.93 41.48 41.12 49.59 50.44 52.11 53.10 52.83 53.61
40.98 40.10 41.81 40.78 42.42 42.53 41.81 41.46 44.56 46.20 46.06 44.99 43.02 45.28 44.09 39.50 41.01 40.08 43.84 42.58 42.23 45.36 42.99 42.54 36.75 40.27 39.65 44.83 44.00 41.69 43.32 43.02 42.55 42.21 40.28 40.38 38.51 41.77 52.56 53.67 53.25 53.51 54.07 53.89 54.42
44.14 43.50 41.86 40.69 40.73 40.06 40.45 43.72 45.27 46.29 46.46 46.79 45.23 43.74 41.76 42.89 44.49 42.67 41.68 43.56 43.23 40.74 40.49 40.42 38.67 37.13 34.19 41.22 40.09 34.18 39.99 41.31 42.16 42.96 41.69 37.38 41.91 51.62 50.76 51.28 50.97 51.99 54.35 54.66 55.03
MSLP
1018.80 1018.48 1018.22 1017.90 1017.58 1017.23 1016.98 1016.73 1016.44 1016.27 1016.03 1015.64 1015.52 1015.10 1014.75 1014.26 1013.66 1013.42 1012.32 1009.68 1009.56 1009.19 1009.62 1009.44 1009.49 1009.45 1009.54 1009.67 1009.48 1009.83 1011.05 1010.83 1010.61 1009.65 1008.62 1007.51 1008.02 1008.77 1008.97 1010.22 1010.76 1010.07 1009.93 1010.25 1011.44
1018.64 1018.29 1018.07 1017.76 1017.33 1016.97 1016.75 1016.42 1016.19 1015.96 1015.72 1015.39 1015.33 1014.92 1014.60 1014.33 1013.80 1012.29 1008.86 1008.67 1008.93 1009.08 1009.66 1009.51 1009.52 1009.46 1009.62 1009.55 1009.37 1009.70 1010.47 1010.19 1009.40 1008.53 1007.97 1007.86 1007.00 1008.33 1009.49 1010.37 1011.00 1009.80 1009.85 1010.25 1011.32
1018.51 1018.18 1017.90 1017.58 1017.07 1016.68 1016.43 1016.17 1015.92 1015.55 1015.35 1015.26 1015.07 1014.72 1014.43 1014.20 1013.42 1009.60 1007.84 1008.41 1008.79 1009.14 1009.29 1009.43 1009.42 1009.55 1009.74 1009.51 1009.28 1009.38 1009.51 1008.90 1008.24 1007.62 1007.33 1006.69 1007.13 1008.26 1009.29 1009.43 1008.55 1008.65 1009.43 1010.00 1011.01
1018.48 1018.11 1017.75 1017.36 1016.78 1016.41 1016.04 1015.82 1015.57 1015.16 1015.13 1015.01 1014.81 1014.49 1014.17 1014.12 1011.89 1008.31 1007.93 1008.35 1008.75 1009.03 1009.34 1009.14 1009.36 1009.69 1009.63 1009.59 1009.00 1009.19 1008.38 1007.97 1007.41 1006.59 1006.73 1006.47 1007.04 1008.39 1007.94 1008.99 1008.09 1007.83 1008.21 1008.98 1010.11
1018.58 1018.05 1017.55 1017.02 1016.50 1016.03 1015.59 1015.60 1015.14 1014.96 1014.91 1014.76 1014.58 1014.26 1014.05 1013.13 1010.32 1007.77 1008.23 1008.53 1008.83 1008.91 1008.97 1009.07 1009.04 1009.17 1009.34 1008.95 1008.81 1009.03 1008.05 1007.27 1006.65 1006.48 1006.10 1006.06 1006.04 1006.55 1007.06 1006.90 1008.78 1008.31 1008.67 1009.50 1010.41
1017.99 1017.75 1017.10 1016.66 1016.16 1015.69 1015.50 1015.13 1014.83 1014.75 1014.61 1014.48 1014.42 1014.19 1013.82 1011.43 1007.74 1007.66 1008.03 1008.54 1008.52 1008.56 1008.44 1008.74 1008.49 1008.59 1008.55 1008.64 1008.65 1007.86 1007.52 1006.92 1006.31 1005.86 1005.29 1005.58 1006.19 1006.61 1007.57 1007.80 1009.37 1009.31 1009.71 1010.10 1010.58
1018.10 1017.41 1016.89 1016.46 1015.86 1015.36 1015.03 1014.63 1014.42 1014.49 1014.28 1014.15 1014.18 1013.96 1013.01 1009.38 1007.48 1007.84 1007.92 1007.83 1007.76 1007.85 1008.12 1007.94 1007.91 1008.44 1008.11 1008.22 1007.91 1007.65 1007.62 1006.58 1005.82 1005.42 1005.19 1005.14 1005.93 1006.78 1007.60 1008.76 1009.02 1009.50 1009.85 1010.04 1010.46
1017.73 1017.14 1016.51 1015.89 1015.51 1014.79 1014.56 1014.13 1014.13 1014.25 1013.93 1013.79 1013.94 1013.71 1011.36 1007.72 1007.82 1008.02 1007.82 1007.49 1007.41 1007.54 1007.73 1007.46 1007.43 1007.72 1007.97 1008.06 1007.90 1008.14 1007.88 1007.59 1005.75 1005.34 1004.93 1005.38 1006.33 1007.14 1007.93 1008.59 1009.05 1009.44 1009.52 1009.52 1009.52
1017.46 1016.74 1016.13 1015.68 1015.02 1014.42 1014.27 1013.86 1013.66 1013.86 1013.87 1013.80 1013.84 1013.03 1010.15 1007.45 1007.28 1007.01 1007.12 1007.26 1007.14 1007.15 1007.06 1006.81 1007.20 1007.88 1008.21 1009.07 1009.45 1009.30 1008.88 1008.09 1006.69 1005.40 1005.49 1005.80 1006.42 1007.40 1008.01 1008.54 1009.08 1009.48 1009.41 1010.18 1010.79
1017.14 1016.33 1015.70 1015.29 1014.80 1014.28 1013.69 1013.45 1013.42 1013.71 1013.81 1013.60 1012.77 1012.30 1009.35 1007.45 1006.60 1006.55 1006.53 1006.88 1006.98 1006.98 1007.33 1007.56 1008.37 1008.73 1009.37 1009.89 1010.16 1009.42 1008.99 1008.14 1007.21 1005.62 1005.48 1005.36 1005.89 1007.48 1008.17 1008.29 1008.70 1009.59 1010.52 1010.24 1010.23
1016.72 1015.99 1015.22 1014.97 1014.63 1014.40 1013.51 1013.27 1013.54 1013.30 1012.65 1011.40 1010.65 1009.82 1008.09 1006.48 1006.14 1006.42 1006.43 1006.64 1006.92 1007.39 1007.98 1008.38 1009.29 1009.32 1009.04 1009.08 1008.92 1009.00 1008.64 1008.00 1006.58 1005.38 1005.49 1005.43 1005.54 1007.41 1008.48 1009.37 1009.73 1010.24 1010.59 1010.39 1009.95
1016.58 1015.78 1015.07 1014.53 1014.37 1014.14 1013.90 1013.02 1011.11 1010.57 1010.50 1009.27 1008.72 1008.42 1007.34 1006.72 1006.49 1006.31 1006.39 1007.19 1007.42 1007.90 1008.36 1008.99 1008.87 1007.85 1008.01 1008.16 1008.24 1008.17 1007.88 1006.97 1005.87 1005.18 1005.28 1005.27 1005.43 1005.65 1007.70 1008.18 1008.45 1009.33 1009.91 1009.87 1010.19
1016.40 1015.50 1014.91 1013.95 1013.61 1013.71 1013.13 1011.39 1009.74 1009.61 1010.24 1008.20 1007.19 1006.71 1006.32 1006.15 1006.14 1006.20 1006.64 1006.97 1007.57 1008.00 1008.34 1008.91 1007.43 1006.85 1007.20 1007.16 1006.73 1006.89 1006.99 1006.75 1006.52 1005.60 1005.60 1005.89 1006.38 1006.62 1006.37 1007.91 1008.28 1009.04 1007.88 1008.88 1008.75
1015.92 1015.39 1014.58 1013.58 1013.53 1013.14 1011.86 1010.06 1009.43 1009.55 1010.06 1007.80 1006.35 1005.40 1005.58 1005.77 1006.01 1005.64 1006.12 1006.79 1007.40 1007.72 1007.96 1007.80 1007.04 1006.52 1006.06 1005.91 1006.18 1006.40 1006.24 1006.52 1006.72 1006.90 1007.33 1007.11 1008.33 1008.47 1008.51 1007.84 1008.44 1008.70 1008.30 1008.12 1008.50
1015.74 1015.10 1014.63 1014.57 1013.69 1012.58 1010.74 1010.02 1009.59 1009.81 1009.33 1006.65 1005.64 1004.59 1005.34 1006.00 1005.75 1005.63 1005.52 1006.30 1006.96 1007.34 1008.04 1007.39 1006.71 1006.14 1005.69 1005.42 1005.55 1005.96 1006.06 1006.70 1007.16 1007.92 1008.14 1008.19 1009.71 1011.75 1009.73 1009.52 1008.86 1007.47 1006.88 1006.56 1006.75
1015.47 1015.25 1014.78 1013.78 1013.52 1011.33 1010.33 1009.96 1009.84 1010.57 1008.25 1006.25 1005.30 1005.28 1006.02 1005.93 1005.75 1005.76 1005.87 1006.01 1006.34 1007.11 1007.45 1007.38 1006.28 1005.85 1005.44 1005.15 1005.30 1005.71 1006.36 1007.36 1008.30 1009.31 1010.02 1010.03 1010.55 1012.23 1011.36 1011.58 1010.37 1008.89 1008.46 1008.55 1009.19
1014.89 1014.20 1014.15 1013.26 1011.87 1010.59 1010.35 1010.52 1011.34 1010.03 1007.53 1006.36 1005.82 1005.64 1005.83 1005.92 1005.90 1005.95 1006.08 1006.50 1007.08 1007.75 1008.31 1007.60 1007.04 1006.28 1005.50 1005.56 1005.80 1006.26 1008.12 1009.34 1010.42 1011.01 1011.55 1010.89 1011.28 1012.15 1011.70 1010.88 1010.48 1010.22 1009.91 1007.38 1008.88
1014.09 1013.07 1012.90 1011.85 1010.76 1010.88 1011.16 1011.91 1011.60 1009.52 1007.83 1006.18 1005.63 1005.76 1006.23 1005.87 1005.96 1006.01 1006.47 1007.03 1007.35 1007.96 1008.82 1008.77 1008.00 1007.29 1006.62 1006.66 1006.65 1007.29 1008.67 1010.48 1011.77 1012.31 1012.15 1011.01 1011.80 1011.57 1011.01 1010.87 1010.62 1010.25 1010.64 1009.98 1010.79
1013.82 1012.85 1012.53 1010.46 1010.54 1011.09 1012.23 1012.63 1011.29 1009.37 1007.84 1006.96 1006.11 1006.13 1006.18 1005.94 1005.92 1006.20 1006.84 1007.42 1007.60 1007.92 1008.80 1009.32 1008.79 1007.82 1007.30 1007.02 1007.30 1008.01 1009.24 1010.30 1011.66 1012.85 1012.77 1012.62 1012.36 1011.03 1010.60 1010.08 1009.90 1011.23 1011.34 1011.30 1011.29
1014.59 1013.45 1011.91 1009.58 1010.10 1011.45 1012.61 1012.51 1010.77 1009.03 1007.75 1007.21 1007.22 1007.08 1007.39 1006.99 1006.78 1006.80 1007.35 1008.08 1008.29 1008.26 1008.44 1009.62 1009.68 1008.87 1007.81 1007.37 1008.11 1008.79 1010.13 1011.16 1012.78 1013.81 1013.97 1013.50 1012.80 1011.79 1010.64 1010.46 1010.00 1011.17 1011.48 1011.15 1011.43
1014.65 1013.41 1010.42 1009.51 1010.38 1012.31 1012.99 1012.12 1010.36 1008.68 1007.94 1007.74 1007.83 1007.91 1008.28 1008.26 1007.88 1007.86 1008.54 1008.73 1008.61 1009.11 1009.29 1010.10 1010.65 1010.54 1009.57 1009.37 1009.67 1010.07 1010.94 1012.48 1013.54 1014.05 1014.35 1013.99 1013.08 1010.92 1010.43 1010.40 1010.32 1010.84 1011.11 1011.14 1011.17
1015.56 1013.93 1010.28 1010.20 1011.83 1012.77 1012.77 1011.38 1009.95 1008.84 1008.00 1007.91 1008.07 1008.32 1008.80 1008.84 1009.04 1009.07 1009.16 1009.18 1009.23 1009.48 1010.60 1011.36 1011.90 1012.22 1011.44 1010.22 1010.08 1010.39 1011.46 1012.54 1014.00 1014.47 1014.50 1013.94 1012.30 1010.42 1010.00 1010.48 1010.55 1010.53 1011.16 1011.40 1011.58
1017.29 1014.97 1010.90 1010.91 1012.59 1013.24 1012.27 1011.19 1009.94 1008.95 1008.60 1008.54 1008.89 1009.21 1009.40 1009.71 1009.94 1010.06 1010.01 1009.92 1009.91 1010.47 1011.09 1011.74 1012.87 1013.42 1012.54 1011.73 1010.96 1011.34 1011.95 1012.67 1013.66 1014.19 1014.22 1014.01 1012.08 1010.36 1010.11 1010.19 1010.56 1011.25 1011.81 1011.92 1012.40
1017.73 1016.25 1013.89 1013.06 1013.44 1013.45 1013.02 1011.82 1010.52 1009.25 1009.03 1009.10 1009.59 1009.71 1010.16 1010.56 1010.68 1010.90 1011.03 1010.69 1010.78 1011.28 1011.74 1012.00 1013.61 1014.11 1013.87 1013.35 1013.04 1012.60 1012.57 1012.87 1013.49 1014.04 1013.78 1013.09 1012.09 1010.89 1010.58 1010.72 1011.09 1011.52 1011.87 1012.13 1012.20
1017.86 1017.48 1016.61 1015.81 1014.75 1014.28 1013.50 1012.40 1011.45 1010.51 1009.82 1009.77 1010.22 1010.63 1011.28 1011.74 1011.80 1012.30 1012.26 1012.10 1012.22 1012.67 1012.83 1013.31 1014.36 1014.52 1014.18 1013.75 1013.51 1013.21 1012.82 1012.74 1013.11 1013.03 1013.14 1012.11 1011.88 1011.18 1010.95 1011.38 1011.63 1011.69 1012.00 1012.17 1012.31
1018.31 1018.26 1017.45 1016.73 1015.83 1014.85 1013.90 1013.03 1012.11 1011.40 1011.12 1010.92 1011.32 1011.94 1012.07 1013.08 1013.41 1013.50 1013.39 1013.60 1013.72 1013.89 1014.08 1014.46 1014.83 1014.96 1014.79 1014.02 1013.74 1013.43 1012.90 1012.34 1012.29 1012.06 1011.83 1011.52 1011.47 1011.05 1011.55 1011.86 1012.42 1012.70 1012.72 1012.97 1013.02
1018.62 1018.30 1018.11 1017.44 1016.64 1015.83 1014.87 1014.21 1013.18 1011.90 1012.22 1011.83 1012.26 1012.96 1013.53 1013.95 1013.98 1014.06 1014.16 1014.22 1014.23 1014.57 1015.19 1015.45 1015.64 1015.98 1015.62 1014.72 1014.02 1013.57 1012.32 1011.69 1011.42 1011.40 1011.46 1011.74 1011.41 1011.76 1012.37 1012.72 1013.00 1013.28 1013.32 1013.29 1013.04
Wind_Speed
14 14 14 15 14 14 14 14 13 13 13 12 13 12 13 14 14 1 7 13 8 6 3 3 2 2 1 2 4 4 2 5 4 2 2 2 6 2 12 15 21 7 6 20 16
16 16 16 15 15 15 15 15 14 14 13 12 12 11 12 13 3 7 12 10 12 9 3 3 2 1 1 2 3 5 4 5 9 5 8 4 10 11 7 15 5 12 14 19 17
17 16 17 16 16 15 15 14 14 13 13 12 10 10 10 7 5 7 5 9 7 7 1 2 1 1 1 1 3 2 5 5 11 11 7 7 21 10 18 15 20 24 24 19 19
17 17 17 17 16 16 15 15 14 14 13 11 9 8 6 1 1 4 7 9 8 5 2 1 2 2 2 3 4 1 9 8 10 12 4 7 14 12 18 6 14 26 26 23 22
16 17 17 17 17 17 16 15 13 13 12 10 7 5 2 2 10 3 9 6 4 6 5 3 2 5 4 4 3 5 10 9 13 10 9 5 6 11 12 12 15 19 20 18 13
17 18 18 18 17 17 15 13 11 11 10 8 5 1 1 3 4 9 8 5 4 4 3 5 6 3 5 4 3 6 6 11 8 10 6 2 5 5 3 18 9 9 9 8 10
17 17 18 18 18 17 15 12 9 10 9 5 5 3 0 13 1 7 9 8 4 5 4 4 5 2 4 8 2 4 6 10 6 3 4 5 3 5 15 13 13 7 9 10 8
19 18 18 19 18 17 16 13 10 9 7 2 7 2 7 6 4 4 6 4 4 7 4 9 4 4 1 4 10 7 4 6 9 5 8 8 9 6 17 18 16 11 14 16 16
20 19 18 19 19 18 16 14 11 6 3 7 2 1 9 11 2 7 9 5 5 7 6 4 4 1 8 4 7 7 4 6 11 1 6 6 10 11 16 17 16 16 18 10 7
20 20 19 18 18 16 18 8 1 2 3 6 5 4 4 4 4 4 4 5 3 3 4 1 6 3 5 5 5 7 4 7 8 10 4 8 13 20 20 21 20 17 4 8 8
21 21 20 18 16 13 8 3 4 2 3 7 5 5 9 2 3 4 6 2 3 3 3 3 5 6 11 10 8 3 5 8 6 6 2 6 5 20 17 9 12 11 12 9 12
21 21 21 19 15 10 1 1 5 6 8 10 14 9 11 6 2 3 6 4 0 6 2 6 7 15 7 8 10 9 8 8 7 8 5 9 1 4 24 23 21 20 17 13 9
21 21 23 21 20 3 3 8 6 6 2 9 7 5 6 7 5 5 9 4 4 6 5 5 14 6 7 9 5 4 4 6 5 8 3 4 9 8 4 20 20 18 24 17 22
22 21 21 27 2 3 5 9 4 6 4 7 4 5 3 4 3 7 10 7 2 5 5 7 5 4 4 2 3 5 3 5 5 7 2 5 4 9 16 14 12 22 23 25 25
22 22 19 12 2 2 5 7 4 7 3 4 4 3 6 7 3 3 7 3 7 8 4 11 7 6 4 2 3 8 2 2 3 5 3 10 8 10 19 22 23 10 29 30 31
23 19 15 2 1 8 9 8 6 6 3 3 6 6 6 4 3 6 5 2 4 3 1 8 6 1 3 2 1 4 5 9 6 4 6 5 6 10 8 9 17 17 6 13 16
26 20 5 3 5 3 6 6 6 3 6 4 6 5 7 5 5 6 6 4 4 3 6 6 5 7 3 4 8 9 8 5 6 7 5 2 10 2 5 4 9 10 9 2 12
28 22 8 6 6 5 5 7 1 5 5 6 4 4 6 7 5 9 5 2 3 4 2 5 9 7 7 3 4 2 7 6 1 2 5 7 2 5 3 1 6 11 8 16 12
24 3 2 6 5 4 7 4 6 4 4 7 5 3 4 2 3 4 3 4 3 4 7 4 5 4 2 5 4 6 5 2 4 2 4 0 3 6 1 8 15 9 9 4 10
4 4 5 4 7 6 6 4 4 3 4 4 5 5 5 5 3 5 2 5 3 3 5 4 1 3 7 8 7 7 1 4 5 2 2 1 2 4 6 3 9 4 1 5 3
3 4 5 6 6 7 4 6 5 5 3 4 2 4 3 4 6 2 5 3 5 4 8 3 4 7 6 2 1 6 4 6 3 4 4 1 6 8 8 5 10 8 9 7 3
3 2 4 4 4 1 3 5 3 3 1 3 2 2 2 4 5 4 2 2 3 2 3 2 5 2 8 5 7 0 3 4 6 4 1 3 8 3 10 6 4 6 4 3 4
2 4 6 6 1 3 5 6 8 4 3 3 4 2 2 2 2 3 1 3 6 4 5 1 2 4 11 7 8 4 3 3 4 3 4 6 7 4 4 3 6 9 5 4 3
3 4 6 6 1 1 5 4 6 5 2 4 2 4 5 4 4 2 2 3 3 3 3 7 3 7 8 4 2 5 6 2 3 3 3 6 5 8 5 7 6 7 6 5 4
2 2 2 4 5 5 2 3 4 6 5 3 3 1 1 2 4 4 5 8 7 3 2 5 3 4 4 5 1 4 8 7 5 6 5 8 6 8 4 7 6 6 6 4 2
3 4 5 3 5 5 3 4 3 4 2 3 5 5 6 5 2 2 1 2 2 5 6 6 2 2 3 4 3 4 9 9 9 9 7 8 7 3 7 9 8 6 7 6 4
3 3 4 5 5 3 1 7 9 0 8 5 4 5 7 3 1 3 3 2 3 3 1 2 2 3 4 4 3 1 8 8 4 4 5 4 8 14 10 10 6 7 6 5 5
Wind_Direction
348 347 342 338 334 332 330 327 326 323 319 325 323 324 322 325 317 122 250 218 185 212 151 321 204 251 145 246 200 126 74 264 257 275 267 351 97 10 133 156 195 230 149 158 140
347 345 338 333 331 331 327 326 325 322 321 326 321 323 324 331 309 249 245 225 221 149 194 229 290 312 10 245 291 112 150 228 215 256 286 191 140 132 153 152 206 128 134 165 137
343 341 334 329 331 328 325 324 323 323 323 320 318 322 320 332 325 257 217 196 152 169 249 157 254 163 283 329 243 176 210 224 273 254 231 271 133 141 147 178 168 153 158 175 145
339 334 330 327 328 323 324 325 322 325 319 314 315 311 329 321 327 305 120 157 158 168 216 118 79 157 219 232 225 246 249 233 259 264 265 262 147 155 152 141 181 159 164 171 161
330 329 328 327 325 324 326 319 326 321 314 309 305 313 8 47 251 189 133 135 159 157 196 186 195 172 210 227 287 190 267 276 261 277 256 213 207 179 194 167 190 152 162 172 165
332 326 329 326 326 324 319 318 320 315 310 300 276 140 86 299 233 149 144 147 216 183 234 157 236 186 256 235 166 236 261 269 287 266 248 205 141 112 278 141 159 138 126 132 131
323 325 326 324 325 323 320 320 320 310 293 261 216 205 298 239 30 155 168 187 202 184 201 227 235 165 269 316 237 258 313 320 279 254 285 128 357 207 147 141 160 164 162 146 151
325 323 326 330 324 326 321 320 310 298 287 223 172 238 249 256 159 200 223 252 231 234 224 263 171 213 81 305 350 355 25 357 282 328 268 96 269 115 154 160 178 177 182 179 183
325 323 327 329 328 326 314 312 306 281 217 150 171 207 271 312 230 198 186 217 272 246 236 287 47 79 8 51 359 2 274 294 310 282 269 132 250 150 166 171 175 183 191 178 97
325 325 326 329 327 322 317 276 355 318 223 213 253 333 265 225 213 199 236 215 249 261 357 36 40 31 14 81 225 244 321 309 279 293 198 241 239 160 176 174 182 185 159 187 158
329 326 330 326 325 321 345 38 25 9 215 209 209 248 288 166 132 185 227 308 6 34 209 316 52 239 231 203 227 253 252 246 247 264 228 302 228 166 177 165 182 181 187 193 185
328 326 325 327 317 320 104 329 210 194 312 230 244 241 254 278 134 262 108 163 255 249 37 4 241 245 230 252 239 254 242 302 290 289 27 332 216 130 177 186 190 180 188 194 180
327 328 323 322 321 118 203 236 309 97 1 292 218 196 226 155 199 228 145 197 248 277 267 178 255 284 200 254 2 309 263 285 297 314 2 42 341 360 301 184 206 192 194 189 187
328 327 327 325 335 318 253 287 204 104 61 278 203 241 114 102 275 194 187 155 236 245 256 236 286 266 172 291 91 309 342 324 322 37 323 58 287 345 347 335 186 191 198 201 199
325 327 326 303 254 293 280 329 324 56 52 219 199 159 145 145 222 249 170 103 228 261 60 271 299 317 248 237 23 244 297 24 10 15 26 355 65 322 21 7 357 215 196 199 196
320 317 321 109 263 243 309 308 51 44 270 218 146 178 127 245 265 180 159 229 187 267 297 247 268 1 221 279 59 280 30 20 47 55 17 292 106 358 23 11 10 18 79 202 215
317 315 297 306 233 323 324 43 46 134 305 187 179 161 191 228 189 189 185 181 166 66 341 342 338 315 34 17 356 48 51 346 359 15 219 105 65 189 277 337 40 31 5 347 163
320 314 191 223 252 18 41 54 81 268 282 269 139 150 186 215 228 192 146 177 141 122 89 55 342 7 340 0 229 105 133 143 357 273 268 353 124 241 229 137 43 66 43 81 87
315 323 261 256 194 93 70 75 211 240 307 350 332 98 321 271 143 84 132 170 151 147 124 93 290 309 320 348 45 313 46 224 125 30 55 271 329 294 268 51 54 23 90 65 153
329 346 268 252 127 66 75 224 251 256 307 29 40 45 25 314 170 142 99 350 72 50 118 213 41 334 314 18 18 67 324 21 15 89 327 360 305 231 296 85 123 107 260 149 200
10 23 263 121 75 54 152 230 286 277 68 48 81 22 29 3 353 62 19 11 37 29 58 49 97 293 12 68 343 351 350 50 117 127 152 231 264 216 228 244 145 180 200 180 148
356 28 283 39 55 95 173 211 307 235 37 46 57 30 42 36 14 52 96 88 5 38 68 335 132 217 246 278 230 258 118 110 112 276 103 133 275 299 222 287 116 188 153 194 211
17 274 318 91 153 286 289 284 264 198 51 33 55 60 312 114 60 72 117 34 44 79 153 181 27 19 344 353 7 27 62 97 94 68 198 145 258 342 281 74 37 124 157 174 223
54 6 323 36 104 326 358 333 340 358 117 115 119 42 35 24 46 336 21 201 99 89 126 87 115 159 201 211 246 320 335 72 132 125 241 212 265 311 312 122 63 124 133 164 172
59 284 185 325 336 339 39 312 357 354 0 60 30 116 317 292 25 41 12 3 36 30 12 97 154 199 253 261 342 311 312 300 228 227 183 270 222 254 310 128 110 115 140 147 183
79 46 345 288 302 358 3 309 306 302 356 291 103 63 82 105 13 153 56 68 167 339 20 348 264 147 267 261 311 305 280 279 273 266 246 246 278 180 117 87 74 74 89 97 88
320 345 100 291 337 20 352 341 317 360 31 66 129 101 71 136 170 230 236 222 211 134 348 40 125 86 246 337 345 316 236 234 245 263 250 296 268 120 102 99 98 74 72 68 23